Regional Weather Roundup
Issued by NWS Kansas City/Pleasant Hill, MO

Home | Current Version | Previous Version | Text Only | Print | Product List | Glossary On
Versions: 1 2 3 4 5 6 7 8 9 10 11 12 13 14 15 16 17 18 19 20 21 22 23 24 25 26 27 28 29 30 31 32 33 34 35 36 37 38 39 40 41 42 43 44 45 46 47 48 49 50
000
ASUS43 KEAX 270804
RWREAX

WEATHER ROUNDUP FOR EASTERN KANSAS AND NORTHWEST MISSOURI
NATIONAL WEATHER SERVICE KANSAS CITY/PLEASANT HILL MO
300 AM CDT WED AUG 27 2014

KSZ040-057-103>105-MOZ028-029-037-043-270900-
...KANSAS CITY METROPOLITAN AREA...

CITY           SKY/WX    TMP DP  RH WIND       PRES   REMARKS
K.C. INTL      PTCLDY    76  72  87 E12       30.08F
K.C. DOWNTOWN  PTCLDY    78  72  81 E12       30.07F
LEES SUMMIT    CLEAR     75  72  90 E7        30.10F
OLATHE - IXD   PTCLDY    77  73  87 E8        30.09F
OLATHE - OJC   PTCLDY    75  73  93 E6        30.08F
LAWRENCE       MOCLDY    80  73  79 CALM      30.07F

$$

MOZ001>008-011>017-020>025-030>033-038>040-044>046-053-054-270900-
...NORTHERN AND CENTRAL MISSOURI...

CITY           SKY/WX    TMP DP  RH WIND       PRES   REMARKS
ST. JOSEPH     PTCLDY    75  71  87 SE7       30.07F
MOSBY          MOSUNNY   75  70  83 E3        30.08F
WHITEMAN AFB   CLEAR     72  55  55 E3        30.08F
CLINTON        CLEAR     72  70  94 CALM      30.09S
SEDALIA        CLEAR     73  68  84 CALM      30.10S
WARSAW         NOT AVBL
MARSHALL       PTCLDY    77  75  94 E7        30.10F
CHILLICOTHE      N/A     73  68  84 CALM      30.11F
MOBERLY        CLEAR     72  68  88 NE3       30.11F
KIRKSVILLE     CLEAR     70  67  90 E5        30.11F

$$

MOZ041-047>049-056>058-063>065-088>090-097-270900-
...EASTERN AND SOUTHERN MISSOURI...

CITY           SKY/WX    TMP DP  RH WIND       PRES   REMARKS
ST. LOUIS INTL PTCLDY    77  69  76 SW3       30.08S
SPIRIT OF STL  MOCLDY    73  69  87 CALM      30.07F
COLUMBIA       CLEAR     75  73  93 NE3       30.09F
JEFFERSON CITY CLEAR     73  69  87 CALM      30.08F
MEXICO         PTCLDY   N/A N/A N/A CALM      30.09F
ROLLA          CLEAR     73  67  81 S6        30.09F
LEBANON        CLEAR     72  68  88 CALM      30.12S
OSAGE BEACH    CLEAR     70  66  88 CALM      30.10S
SPRINGFIELD    CLEAR     72  67  84 CALM      30.10F
BRANSON        CLEAR     72  68  88 CALM      30.12S
NEVADA         PTCLDY    72  66  83 CALM      30.09S
JOPLIN         CLEAR     73  67  81 E5        30.09R
WEST PLAINS    CLEAR     71  67  87 CALM      30.12F

$$

IAZ060-094-KSZ022-034>040-054-083-096-NEZ052-066-093-270900-
...KANSAS...SOUTHEAST NEBRASKA AND IOWA...

CITY           SKY/WX    TMP DP  RH WIND       PRES   REMARKS
TOPEKA         CLOUDY    79  75  87 E3        30.06F
MANHATTAN      PTCLDY    74  70  87 N3        30.06S
EMPORIA        PTCLDY    75  67  76 S7        30.07S
CHANUTE        PTCLDY    76  66  71 SE7       30.07S
WICHITA        MOCLDY    76  68  76 S6        30.07S
OMAHA          PTCLDY    70  64  81 E3        30.11F
LINCOLN        PTCLDY    69  66  90 NE3       30.10F
FALLS CITY     MOCLDY    72  70  93 E3        30.07F
LAMONI         PTCLDY    69  66  90 E5        30.12F
DES MOINES     MOCLDY    71  63  75 E6        30.12F

$$




USA.gov is the U.S. government's official web portal to all federal, state and local government web resources and services.